Dauntless Aviation
Greetings, Guest! To participate, [sign up for a free account] or [log in]
Airports North America United States Colorado
98CO

NCMC HELIPORT

GREELEY, CO, USA

Airport Info

Location

Latitude / Longitude: 40°24'53"N / 104°42'28"W
  40°24.9'N / 104°42.4667'W
  40.4150 / -104.7078
Elevation: 4882 ft. (estimated)
Variation: 12E (1985)
From city: 00 miles N of GREELEY, CO

Operations

Facility use: Private
Sectional chart: DENVER
Control tower: no
Boundary ARTCC: DENVER
FSS: DENVER [1-800-WX-BRIEF]
Segmented circle: no

Communications

Nearby radio navigation aids

VOR radial/distance VOR name Freq Var
GLL 233oT/8.9 GILL VORTAC 114.20 13E
DVV 353oT/31.5 MILE HIGH VORTAC 114.70 11E
BJC 33oT/36.1 JEFFCO VOR/DME 115.40 11E
DEN 357oT/36.2 DENVER VOR/DME 117.90 11E
 
NDB name Hdg/Dist Freq Var ID

Services

Runway Information

Helipad H1

Dimensions: 40 x 40 ft.
Surface: PORTLAND CEMENT CONCRETE,NO SPECIAL SURFACE TREATMENT
 

Additional Remarks

Instrument Procedures

No published instrument procedures available
Topographic chart at:
Satellite photo at:
Airport distance calculator
From:
Weather Reports

METAR

KGXY
4.2nm NE
KGXY 260335Z AUTO 04020G25KT 10SM CLR 01/M04 A3001 RMK AO1
KFNL
14.3nm W
KFNL 260335Z AUTO 05013G26KT 10SM BKN120 03/M05 A3000 RMK AO1
KLMO
25.8nm SW
KLMO 260335Z AUTO 10010G15KT 10SM SCT085 07/M05 A2998 RMK AO2 T00741049
KEIK
28.6nm S
KEIK 260335Z AUTO 02008KT 10SM SCT095 08/M07 A2997 RMK AO2 T00791071
KBDU
33.3nm SW
KBDU 260335Z AUTO 32017G29KT 10SM CLR 08/M06 A2995 RMK AO2
KDEN
35.0nm SE
KDEN 260331Z 05018KT 10SM FEW070 BKN090 BKN120 03/M04 A2998 RMK AO2 PK WND 04028/0321 WSHFT 0316 T00281044

TAF

KDEN
35.0nm SE
KDEN 260236Z 2603/2706 29014KT P6SM FEW110 SCT140 FM260315 02012G22KT P6SM SCT060 BKN110 FM260500 05011KT P6SM VCSH SCT025 BKN060 FM260700 09008KT P6SM SCT015 OVC025 TEMPO 2608/2612 2SM -SN BR BKN015 FM261600 17007KT P6SM FEW025 BKN060 FM261800 26007KT P6SM SCT060 SCT140 FM270200 22007KT P6SM FEW140
KBJC
35.3nm S
KBJC 252332Z 2600/2624 27020G34KT P6SM SCT060 BKN100 FM260400 28014KT P6SM SCT060 BKN100 FM260700 07008KT P6SM SCT025 BKN060 FM260800 04010KT P6SM SCT015 BKN025 BKN050 PROB30 2609/2614 2SM -SN BR BKN015 FM261600 VRB05KT P6SM FEW025 BKN060 FM261800 28010KT P6SM SCT060 BKN140
Safelog

 

Dauntless Aviation

© 2007-2014 Dauntless Aviation, all rights reserved
Information provided via PilotNav comes from a variety of official and unofficial data sources. As errors are possible, do not use PilotNav for primary flight planning purposes. Verify any information that you receive via PilotNav with current and canonical charts and other official documents. The material in this database is subject to database copyrights held by Dauntless Aviation and may not be copied without the express permission of Dauntless Aviation - licenses for use of part of all of this data are available for purchase; enquire via the Dauntless Aviation helpdesk. A number of mechanisms and markers exist in the database to protect against and identify infringement / copyright. Automated queries against this website are stictly prohibited, and all activity is logged and analyzed.